Flag for India Weather past 2 weeks in Varanasi, Uttar Pradesh, India

Now
84 °F

Haze.


Feels Like: 86 °F
Forecast: 67 / 91 °F
Wind: No wind

Location: Varanasi / Babatpur

Current Time: Oct 23, 2014 at 11:45:02 AM

Latest Report: Oct 23, 2014 at 11:00 AM


Visibility: 3 mi

Pressure: 30.01 "Hg

Humidity: 51%

Dew point: 64 °F

Location of VaranasiLocation

Historic Weather in Varanasi — Graph

°F

Varanasi temperature yesterday

Maximum temperature yesterday: 88 °F (at 3:00 PM)
Minimum temperature yesterday: 72 °F (at 4:00 AM)
Average temperature yesterday: 79 °F

Past Weeks' High & Low Weather Summary

 TemperatureHumidityPressure
High95 °F (Oct 8, 2:00 PM)100% (Oct 12, 6:00 AM)30.07 "Hg (Oct 12, 6:00 AM)
Low66 °F (Oct 20, 5:00 AM)46% (Oct 19, 12:00 PM)29.62 "Hg (Oct 14, 5:00 AM)
Average80 °F76%29.87 "Hg
* Reported Oct 8 11:00 AM — Oct 23 10:00 AM, Varanasi, Weather by CustomWeather, © 2014

Note: Actual official high and low records may vary slightly from our data, if they occured in-between our weather recording intervals... More about our weather records

Advertising

Varanasi weather history for previous 24 hours

 ConditionsComfort  
Time TempWeatherWind HumidityBarometerVisibility
10:00 AM
Oct 23
81 °FHaze.No wind62%30.01 "Hg2 mi
9:00 AM75 °FFog.No wind78%30.01 "Hg1 mi
7:00 AM70 °FFog.No wind94%29.98 "Hg1 mi
5:00 AM70 °FFog.No wind88%29.95 "Hg1 mi
12:00 AM73 °FFog.No wind94%29.95 "Hg2 mi
11:00 PM
Oct 22
73 °FFog.No wind94%29.95 "Hg2 mi
10:00 PM73 °FFog.No wind94%29.98 "Hg2 mi
9:00 PM73 °FFog.No wind94%29.98 "Hg2 mi
8:00 PM79 °FHaze.No wind79%29.95 "Hg2 mi
7:00 PM79 °FHaze.No wind79%29.95 "Hg2 mi
6:00 PM79 °FHaze.No wind84%29.92 "Hg2 mi
5:00 PM82 °FHaze.No wind58%29.92 "Hg3 mi
4:00 PM86 °FHaze.No wind52%29.92 "Hg3 mi
3:00 PM88 °FHaze.No wind49%29.95 "Hg3 mi
1:00 PM86 °FHaze.No wind52%30.01 "Hg3 mi
12:00 PM86 °FHaze.No wind52%30.04 "Hg3 mi
11:00 AM84 °FHaze.No wind58%30.04 "Hg3 mi
Weather by CustomWeather, © 2014

See weather overviewHow to use our weather pages